Regional Weather Roundup
Issued by NWS Boston, MA

Current Version | Previous Version | Text Only | Print | Product List | Glossary Off
Versions: 1 2 3 4 5 6 7 8 9 10 11 12 13 14 15 16 17 18 19 20 21 22 23 24 25 26 27 28 29 30 31 32 33 34 35 36 37 38 39 40 41 42 43 44 45 46 47 48 49 50
000 ASUS41 KBOX 260910 RWRBOX REGIONAL WEATHER ROUNDUP NATIONAL WEATHER SERVICE BOSTON/NORTON MA 500 AM EDT THU APR 26 2018 NOTE: "FAIR" INDICATES FEW OR NO CLOUDS BELOW 12,000 FEET WITH NO SIGNIFICANT WEATHER AND/OR OBSTRUCTIONS TO VISIBILITY. MAZALL-261000- EASTERN MASSACHUSETTS CITY SKY/WX TMP DP RH WIND PRES REMARKS BOSTON LGT RAIN 53 53 100 S3 29.58 VSB 1/2 BEVERLY FOG 51 51 100 SE6 29.57F VSB 1/4 LAWRENCE CLOUDY 56 53 90 S3 29.58F FOG BEDFORD LGT RAIN 57 56 96 S6 29.55F BLUE HILL N/A 54 54 100 S9 29.56F NORWOOD LGT RAIN 57 56 96 S3 29.57F FOG MARSHFIELD LGT RAIN 57 57 100 S5 29.58F PLYMOUTH LGT RAIN 55 54 96 S6 29.59F TAUNTON RAIN 56 55 97 SE5 29.57F FOG NEW BEDFORD RAIN 53 53 100 S6 29.58F FOG $$ MAZALL-261000- CAPE COD AND THE ISLANDS CITY SKY/WX TMP DP RH WIND PRES REMARKS FALMOUTH LGT RAIN 52 52 100 SE5 29.60 HYANNIS HVY RAIN 51 51 100 SE3 29.58 FOG CHATHAM RAIN 49 49 100 VRB7 29.60F FOG PROVINCETOWN LGT RAIN 50 50 100 S7 29.61F VSB 1/2 NANTUCKET CLOUDY 48 48 100 SE10 29.60S FOG MARTHAS VNYRD LGT RAIN 52 51 97 S12 29.59S FOG $$ MAZALL-261000- CENTRAL AND WESTERN MASSACHUSETTS CITY SKY/WX TMP DP RH WIND PRES REMARKS WORCESTER LGT RAIN 53 53 100 E3 29.56F VSB 1/4 FITCHBURG LGT RAIN 54 54 100 CALM 29.57F FOG ORANGE FOG 53 53 100 CALM 29.57F VSB 3/4 SPRINGFIELD FOG 55 55 100 SW3 29.55 VSB 5/8 WESTFIELD CLOUDY 55 55 100 W5 29.56S FOG NORTH ADAMS LGT RAIN 53 51 93 W10 29.59R FOG PITTSFIELD LGT RAIN 51 48 89 W10 29.59R FOG $$ RIZALL-261000- RHODE ISLAND CITY SKY/WX TMP DP RH WIND PRES REMARKS PROVIDENCE LGT RAIN 52 52 100 S5 29.58F FOG NEWPORT LGT RAIN 52 52 100 SE5 29.58S FOG BLOCK ISLAND LGT RAIN 52 52 100 S6 29.58F VSB 3/4 SMITHFIELD LGT RAIN 52 51 97 MISG 29.57F VSB 1/4 WESTERLY FOG 51 51 100 E5 29.58F VSB 1/4 $$ CTZALL-261000- CONNECTICUT CITY SKY/WX TMP DP RH WIND PRES REMARKS BRADLEY INTL FOG 55 55 100 CALM 29.56S VSB 1/4 HARTFORD FOG 55 55 100 CALM 29.57R VSB 1/2 BRIDGEPORT FOG 53 52 96 CALM 29.58R VSB 1 DANBURY CLOUDY 54 54 100 W5 29.59S GROTON LGT RAIN 49 49 100 CALM 29.56F VSB 1/4 NEW HAVEN FOG 52 50 93 S3 29.58R VSB 1/2 CHESTER FOG 54 54 100 W3 29.57R VSB<1/4 MERIDEN FOG 53 53 100 S3 29.58R VSB 1 WILLIMANTIC CLOUDY 56 55 97 CALM 29.56F FOG OXFORD FOG 54 54 100 VRB5 29.59R VSB 1/2 $$ MEZ002-015-021-024-NHZ003-005-008-011-012-014-VTZ005-008-261000- NORTHERN NEW ENGLAND CITY SKY/WX TMP DP RH WIND PRES REMARKS PORTLAND ME FOG 48 48 100 E3 29.61F VSB 1/2 BANGOR ME LGT RAIN 51 50 96 S10G17 29.67F CONCORD NH CLOUDY 50 48 93 N3 29.58F FOG MANCHESTER NH FOG 52 50 93 NE5 29.56F VSB 3/4 NASHUA NH LGT RAIN 51 51 100 NW3 29.57F FOG PORTSMOUTH NH FOG 48 48 100 N3 29.57F VSB 1/8 JAFFREY NH LGT RAIN 49 49 100 CALM 29.57F FOG KEENE NH LGT RAIN 52 51 97 N3 29.57F FOG BURLINGTON VT CLOUDY 52 50 93 SE3 29.56F FOG MT. WASHINGTON DRZL/FOG 41 41 100 S25 N/A VSB 1/16WCI 31 $$ NYZ052-076-261000- EASTERN NEW YORK CITY SKY/WX TMP DP RH WIND PRES REMARKS ALBANY CLOUDY 53 47 79 W8 29.62R NEW YORK CITY FAIR 58 52 80 NW16 29.59R $$ ANZALL-261000- MARINE OBSERVATIONS STATION/POSITION TIME TEMP WIND PRES VSBY WAVE AIR SEA DIR/SP/G HT/PER (UTC) (F) (DEG/KT/KT) (MB) (MI) (FT/S) BOSTON BUOY 0850 47 44 130/ 8/ 12 1001.9F 4/ 7 BUZZARDS BAY 0800 51 170/ 10/ 11 1002.8F NANTUCKET SOUND 0750 48 46 150/ 10/ 12 1002.2 2/ 4 MASS BAY-STELLWA 0804 47 44 1001.0F 4/ 6 ISLE OF SHOALS 0900 49 170/ 17/ 18 1001.3F S OF BLOCK IS 0843 44 N/A 10/12 $$ ......................KEY......................... SKY/WX - SKY CONDITION/PRESENT WEATHER TMP - TEMPERATURE IN FAHRENHEIT DWPT - DEWPOINT IN FAHRENHEIT RH - RELATIVE HUMIDITY IN PERCENT WIND - DIRECTION AND SPEED IN MPH PRES - MEAN SEA LEVEL PRESSURE IN INCHES OF HG WCI - WIND CHILL INDEX VSB - VISIBILITY IN MILES HX - HEAT INDEX TC - TEMPERATURE IN CELSIUS VRB - VARIABLE WIND DIRECTION N/A - NOT AVAILABLE

USA.gov is the U.S. government's official web portal to all federal, state and local government web resources and services.